Location: Buckhorn Peak
(37.6641°N, 120.1241°W)
Time: 21:56:19
(UTC+00:00)

USA 234 - Pass Details

Date: 05 August 2024
Orbit: 1100 x 1107 km, 123.0° (Epoch: 08 July)

Event Time Altitude Azimuth Distance (km) Brightness Sun altitude
Rises 12:02:37 0° 43° (NE) 3,930 7.9 -12.4°
Reaches altitude 10° 12:05:07 10° 42° (NE) 2,969 6.9 -11.9°
Maximum altitude 12:11:39 75° 318° (NW) 1,139 3.3 -10.8°
Enters shadow 12:17:49 12° 234° (SW) 2,826 4.7 -9.8°
